STARLINK-36499, 67359

Orbit data source: Space-Track

STARLINK-36499, 67359 is a payload satellite owned by SpaceX/Seattle (US) in LEO that was launched on Fri, 09 Jan 2026 UTC via an FALCON 9 launch vehicle from the Air Force Eastern Test Range (AFETR). Payload-class satellites include a variety of spacecraft equipped with specific instruments for various scientific and technological missions. These include communications satellites like Starlink; space stations such as the ISS; scientific satellites like the Hubble; Earth observation satellites from companies like Planet Labs, Umbra, and HawkEye 360; GPS; miniature CubeSats for education and research; and military/defense satellites.

Loading next visibility...
Identifier
67359, 2026-003AB
Orbit
LEO
Country
Flag of USUS
Related business
Manufacturer
SpaceX/Seattle
Mission
Operational Commercial Communications
Bus & Motor
STARLINK V2MO, Unknown motor
Mass
575 kg wet, ~530 kg dry
Launch date (UTC)
2026-01-09 (5 months ago)
Launch vehicle
FALCON 9
Launch site
Air Force Eastern Test Range (AFETR)
Object type
Payload
Rocket body
Debris
Shape & HBR
Box + 2 Pan, 17.7 m
Radar Cross Section
36.964 m², Large (>1 m²)

Expand to show TLE details & history
Last TLE update: 21 hours ago

TLE from 21 hours ago
0 STARLINK-36499
1 67359U 26003AB  26170.98421362  .00013088  00000-0  48409-3 0  9990
2 67359  43.0018   9.7872 0000818 268.2254  91.8504 15.27592114 24467
Epoch: 2026-06-19T23:37Z
TLE epoch observation values (Epoch: 2026-06-19T23:37:16.056Z)
Latitude
-0.00003°
Longitude
107.26492°
Altitude
482.807 km
Speed
7.626 km/s
True Right ascension
00h 39m 08s
True Declination
0° 00' 00"
Sunlit
Object was in daylight at epoch
Visualization orbit readout
Latitude
Unknown
Longitude
Unknown
Altitude
Unknown
Speed
Unknown
Apparent Right ascension
Unknown
Apparent Declination
Unknown
Sunlit
N/A
Visualization observer readout
Local Sidereal Time
07:19:01
Azimuth
Unknown
Elevation
Unknown
Doppler factor
Unknown
Orbital elements
Apogee altitude
485.519 km
Perigee altitude
484.396 km
Semi-major axis
6,863.095 km
Eccentricity
0.00008
Inclination
43.0018°
RAAN
9.7872°
Arg. of periapsis
268.2254°
True anomaly
91.85977°
Mean anomaly
91.8504°
Eccentric anomaly
91.85508°
Mean motion
3.81736 °/min
Orbital period
94.31 mins
BSTAR
0.00048409
Loading maneuver chart data...
Computing Atmospheric mass density...
Loading historical data...
Loading historical data...
Loading historical data...
Loading historical data...
Loading historical data...
Loading historical data...
Loading historical data...

Documentation

Showing up to 5 results
|